Location: Kumla
(59.1265°N, 15.1401°E)
Time: 06:56:16
(UTC+01:00)

Transit 4A - Pass Details

Date: 07 December 2023
Orbit: 870 x 973 km, 66.8° (Epoch: 02 March)

Event Time Altitude Azimuth Distance (km) Brightness Sun altitude
Exits shadow 04:20:42 19° 170° (S) 2,029 9.7 -30.7°
Drops below altitude 10° 04:22:19 10° 164° (SSE) 2,578 10.3 -30.5°
Sets 04:24:51 0° 159° (SSE) 3,500 11.1 -30.2°
